Regional Weather Roundup
Issued by NWS Upton, NY

Current Version | Previous Version | Text Only | Print | Product List | Glossary Off
Versions: 1 2 3 4 5 6 7 8 9 10 11 12 13 14 15 16 17 18 19 20 21 22 23 24 25 26 27
000 ASUS41 KOKX 251304 RWROKX REGIONAL WEATHER ROUNDUP NATIONAL WEATHER SERVICE NEW YORK NY 900 AM EDT WED MAY 25 2016 NOTE: "FAIR" INDICATES FEW OR NO CLOUDS BELOW 12,000 FEET WITH NO SIGNIFICANT WEATHER AND/OR OBSTRUCTIONS TO VISIBILITY. NYZ071-072-176-178-NJZ106-104-251400- NEW YORK CITY METRO AREA CITY SKY/WX TMP DP RH WIND PRES REMARKS CENTRAL PARK SUNNY 70 48 45 W5 30.10R LAGUARDIA APRT MOSUNNY 72 52 49 W5 30.06S KENNEDY INTL MOSUNNY 73 50 44 W7 30.08R NEWARK/LIBERTY MOSUNNY 73 52 47 W8 30.07S BRNX BOT. GARD N/A 72 48 43 SW9 30.07R TETERBORO SUNNY 72 51 47 SE6 30.06R $$ NYZ177-179-078>081-251400- LONG ISLAND NEW YORK CITY SKY/WX TMP DP RH WIND PRES REMARKS FARMINGDALE SUNNY 72 51 47 W5 30.06S ISLIP MOSUNNY 70 57 63 W6 30.05S SHIRLEY SUNNY 70 57 63 W7 30.06S RIVERHEAD N/A 66 61 82 SW2 30.05R WESTHAMPTON SUNNY 66 57 72 W8 30.06S EAST HAMPTON FAIR 65 58 79 W7 30.04R MONTAUK POINT N/A 66 58 75 SW6 30.05S $$ NYZ052-065-067-251400- HUDSON VALLEY CITY SKY/WX TMP DP RH WIND PRES REMARKS WHITE PLAINS SUNNY 69 52 54 NW7 30.06R NEWBURGH SUNNY 64 54 68 W12 30.08R MONTGOMERY SUNNY 66 54 65 SW12 30.06S POUGHKEEPSIE SUNNY 67 51 56 SW7 30.05S ALBANY MOSUNNY 64 53 67 S7 30.05R $$ NJZ001-105-106-008-010-013-015-019>022-104-251400- NEW JERSEY CITY SKY/WX TMP DP RH WIND PRES REMARKS NEWARK/LIBERTY MOSUNNY 73 52 47 W8 30.07S TETERBORO SUNNY 72 51 47 SE6 30.06R CALDWELL SUNNY 70 51 51 S5 30.08S MORRISTOWN SUNNY 68 59 73 CALM 30.08S SOMERVILLE SUNNY 68 57 68 CALM 30.08R SUSSEX SUNNY 64 54 69 SW3 30.10R ANDOVER N/A 64 55 72 CALM 30.10S TRENTON SUNNY 70 51 51 W8 30.10R MILLVILLE SUNNY 74 52 46 NW7 30.12R ATLANTIC CITY SUNNY 72 54 53 NW7 30.11R WRIGHTSTOWN NOT AVBL TOMS RIVER SUNNY 73 52 46 W7 30.10S BELMAR SUNNY 71 55 56 W7 30.10R $$ PAZ047>061-062-071-251400- EASTERN PENNSYLVANIA CITY SKY/WX TMP DP RH WIND PRES REMARKS PHILADELPHIA MOSUNNY 70 53 54 SW6 30.12R ALLENTOWN SUNNY 66 53 63 SW5 30.12R SCRANTON SUNNY 61 47 59 CALM 30.13S $$ CTZ002-004>006-009-010-012-RIZ004-006-007-MAZ004-011-015-251400- SOUTHERN NEW ENGLAND IN CT CITY SKY/WX TMP DP RH WIND PRES REMARKS BRADLEY INTL MOSUNNY 64 55 72 SE5 30.01S HARTFORD SUNNY 67 56 67 S5 30.02S DANBURY SUNNY 65 54 67 VRB3 30.07R WTRBRY/OXFORD MOSUNNY 63 55 77 W3 30.06F BRIDGEPORT SUNNY 65 56 72 SW8 30.05R MERIDEN SUNNY 65 56 72 VRB5 30.04R NEW HAVEN SUNNY 63 58 83 SW3 30.05R CHESTER FAIR 64 57 77 SW5 30.04S GROTON MOSUNNY 60 60 100 SW7 30.03S WILLIMANTIC SUNNY 62 55 77 CALM 30.03R IN RI CITY SKY/WX TMP DP RH WIND PRES REMARKS PROVIDENCE MOSUNNY 63 57 81 VRB3 30.01F BLOCK ISLAND SUNNY 62 58 86 SW10 30.04 WESTERLY FOG 57 54 89 SW7 30.04S VSB 1 IN MA CITY SKY/WX TMP DP RH WIND PRES REMARKS BOSTON MOSUNNY 62 56 80 SW3 30.00F WORCESTER SUNNY 62 51 67 W9 30.01S WESTFIELD SUNNY 61 52 72 SW3 30.01S PROVINCETOWN CLOUDY 54 54 100 SW6 30.03S FOG NANTUCKET MOSUNNY 61 56 83 NW8 30.04R $$ ANZ330-335-338-340-345-350-353-355-251400- COASTAL MARINE OBSERVATIONS STATION/POSITION TIME SKY/WX TEMP WIND PRES VSBY WAVE AIR SEA DIR/SP/G HT/PER (UTC) (F) (DEG/KT/KT) (MB) (MI) (FT/S) NY HARB ENTRANCE 1150 60 57 240/ 6/ 6 1017.8 2/ 7 20S FIRE ISLAND 1150 58 55 210/ 4/ 6 1017.9 2/ 8 GREAT SOUTH BAY 1200 62 64 240/ 6/ 6 N/A 23 SSW MONTAUK P 1150 56 54 230/ 10/ 10 1016.9 3/ 8 15 E BARNEGAT LI 1222 55 N/A 3/ 8 HUDSON CANYON 1150 56 53 1018.5 3/10 KINGS POINT 1200 65 58 1017.7 EXECUTION ROCKS NOT AVBL CENTRAL LI SOUND NOT AVBL EASTERN LI SOUND 1200 54 52 280/ 6/ 6 N/A ROBBINS REEF 1218 67 270/ 9/ 10 1017.4 $$ >>>>>>>>>>>>>>>>>>>>>>>>>>>> KEY <<<<<<<<<<<<<<<<<<<<<<<<<<< > < > SKY/WX - SKY CONDITION/PRESENT WEATHER < > TMP - TEMPERATURE IN FAHRENHEIT < > DP - DEWPOINT IN FAHRENHEIT < > RH - RELATIVE HUMIDITY IN PERCENT < > WIND - DIRECTION AND SPEED IN MPH < > PRES - MEAN SEA LEVEL PRESSURE IN INCHES OF HG < > WCI - WIND CHILL INDEX < > VSB - VISIBILITY IN MILES < > HX - HEAT INDEX < > TC - TEMPERATURE IN CELSIUS < > VRB - VARIABLE WIND DIRECTION < > < >>>>>>>>>>>>>>>>>>>>>>>>>>>> KEY <<<<<<<<<<<<<<<<<<<<<<<<<<<

USA.gov is the U.S. government's official web portal to all federal, state and local government web resources and services.